This is the latest recevied weather packets stored in our database for station/object N2XP-2. If no packets are shown the sender has not sent any weather packets the latest 10 day(s).
| Time | Temp. | Humidity | Pressure | Rain* | Wind** | Luminosity | Snow |
|---|---|---|---|---|---|---|---|
| 1778122033 | 19.44° C | 84% | 1008.2 hPa | 0 mm | 0 m/s | - | - |
| 1778121729 | 19.44° C | 84% | 1008.3 hPa | 0 mm | 0.89 m/s, 228° | - | - |
| 1778121430 | 19.44° C | 84% | 1008.3 hPa | 0 mm | 0.45 m/s, 263° | - | - |
| 1778121131 | 20° C | 84% | 1008.3 hPa | 0 mm | 0.45 m/s, 183° | - | - |
| 1778120828 | 20° C | 83% | 1008.2 hPa | 0 mm | 0.45 m/s, 210° | - | - |
| 1778120794 | 20° C | 82% | 1008.6 hPa | 0 mm | 0 m/s | - | - |
| 1778120528 | 20° C | 83% | 1008.2 hPa | 0 mm | 0 m/s | - | - |
| 1778120229 | 20° C | 83% | 1008.5 hPa | 0 mm | 0.45 m/s, 208° | - | - |
| 1778119926 | 20° C | 83% | 1008.7 hPa | 0 mm | 0.45 m/s, 270° | - | - |
| 1778119627 | 20° C | 82% | 1008.6 hPa | 0 mm | 0.89 m/s, 308° | - | - |
| 1778119328 | 20° C | 82% | 1008.6 hPa | 0 mm | 0.45 m/s, 211° | - | - |
| 1778119058 | 20° C | 82% | 1008.6 hPa | 0 mm | 0 m/s | - | - |
| 1778119024 | 20° C | 82% | 1008.6 hPa | 0 mm | 0 m/s | - | - |
| 1778118891 | 20° C | 81% | 1008.8 hPa | 0 mm | 0.45 m/s, 222° | - | - |
| 1778118875 | 20° C | 81% | 1008.8 hPa | 0 mm | 0.45 m/s, 174° | - | - |
| 1778118725 | 20° C | 82% | 1008.7 hPa | 0 mm | 0.45 m/s, 248° | - | - |
| 1778118426 | 20° C | 82% | 1008.8 hPa | 0 mm | 0.89 m/s, 285° | - | - |
| 1778118123 | 20° C | 81% | 1008.8 hPa | 0 mm | 0.45 m/s, 222° | - | - |
| 1778117824 | 20° C | 81% | 1008.7 hPa | 0 mm | 0.89 m/s, 214° | - | - |
| 1778117525 | 20° C | 81% | 1008.8 hPa | 0 mm | 0.45 m/s, 224° | - | - |
| 1778117222 | 20° C | 81% | 1008.8 hPa | 0 mm | 0.45 m/s, 174° | - | - |
| 1778116969 | 20.56° C | 79% | 1008.3 hPa | 0 mm | 0 m/s | - | - |
| 1778116957 | 20.56° C | 80% | 1008.7 hPa | 0 mm | 0.45 m/s, 228° | - | - |
| 1778116955 | 20.56° C | 79% | 1008.2 hPa | 0 mm | 0 m/s | - | - |
| 1778116922 | 20.56° C | 80% | 1008.7 hPa | 0 mm | 0.45 m/s, 228° | - | - |
* Rain latest hour (hover to see other rain measurements)
** Current wind speed in m/s (hover to see current wind gust speed)